Time,TemperatureF,DewpointF,PressureIn,WindDirection,WindDirectionDegrees,WindSpeedMPH,WindSpeedGustMPH,Humidity,HourlyPrecipIn,Conditions,Clouds,dailyrainin,SolarRadiationWatts/m^2,SoftwareType,DateUTC
2013-03-21 00:02:00,12.0,2.0,-100.00,NW,314,2.0,8.0,63,0.00,,,0.00,0.000000,,2013-03-21 05:02:00,
2013-03-21 00:22:00,12.0,2.0,-100.00,NW,314,2.0,8.0,63,0.00,,,0.00,0.000000,,2013-03-21 05:22:00,
2013-03-21 00:33:00,12.0,2.0,-100.00,NW,314,2.0,8.0,63,0.00,,,0.00,0.000000,,2013-03-21 05:33:00,
2013-03-21 00:44:00,12.0,2.0,-100.00,NW,314,2.0,8.0,63,0.00,,,0.00,0.000000,,2013-03-21 05:44:00,
2013-03-21 00:52:00,12.0,2.0,-100.00,NW,314,2.0,8.0,63,0.00,,,0.00,0.000000,,2013-03-21 05:52:00,
2013-03-21 01:02:00,12.0,3.0,-100.00,NW,315,3.0,5.0,65,0.00,,,0.00,0.000000,,2013-03-21 06:02:00,
2013-03-21 01:23:00,12.0,3.0,-100.00,NW,315,3.0,5.0,65,0.00,,,0.00,0.000000,,2013-03-21 06:23:00,
2013-03-21 01:32:00,12.0,3.0,-100.00,NW,315,3.0,5.0,65,0.00,,,0.00,0.000000,,2013-03-21 06:32:00,
2013-03-21 01:42:00,12.0,3.0,-100.00,NW,315,3.0,5.0,65,0.00,,,0.00,0.000000,,2013-03-21 06:42:00,
2013-03-21 01:52:00,12.0,3.0,-100.00,NW,315,3.0,5.0,65,0.00,,,0.00,0.000000,,2013-03-21 06:52:00,
2013-03-21 02:02:00,9.0,2.0,-100.00,WNW,299,2.0,4.0,71,0.00,,,0.00,0.000000,,2013-03-21 07:02:00,
2013-03-21 02:32:00,9.0,2.0,-100.00,WNW,299,2.0,4.0,71,0.00,,,0.00,0.000000,,2013-03-21 07:32:00,
2013-03-21 02:43:00,9.0,2.0,-100.00,WNW,299,2.0,4.0,71,0.00,,,0.00,0.000000,,2013-03-21 07:43:00,
2013-03-21 02:52:00,9.0,2.0,-100.00,WNW,299,2.0,4.0,71,0.00,,,0.00,0.000000,,2013-03-21 07:52:00,
2013-03-21 03:02:00,9.0,2.0,-100.00,NW,318,2.0,5.0,74,0.00,,,0.00,0.000000,,2013-03-21 08:02:00,
2013-03-21 03:33:00,9.0,2.0,-100.00,NW,318,2.0,5.0,74,0.00,,,0.00,0.000000,,2013-03-21 08:33:00,
2013-03-21 03:42:00,9.0,2.0,-100.00,NW,318,2.0,5.0,74,0.00,,,0.00,0.000000,,2013-03-21 08:42:00,
2013-03-21 03:52:00,9.0,2.0,-100.00,NW,318,2.0,5.0,74,0.00,,,0.00,0.000000,,2013-03-21 08:52:00,
2013-03-21 04:02:00,5.0,0.0,-100.00,NNW,331,1.0,3.0,81,0.00,,,0.00,0.000000,,2013-03-21 09:02:00,
2013-03-21 04:33:00,5.0,0.0,-100.00,NNW,331,1.0,3.0,81,0.00,,,0.00,0.000000,,2013-03-21 09:33:00,
2013-03-21 04:43:00,5.0,0.0,-100.00,NNW,331,1.0,3.0,81,0.00,,,0.00,0.000000,,2013-03-21 09:43:00,
2013-03-21 04:53:00,5.0,0.0,-100.00,NNW,331,1.0,3.0,81,0.00,,,0.00,0.000000,,2013-03-21 09:53:00,
2013-03-21 05:02:00,6.0,1.0,-100.00,WNW,285,1.0,3.0,80,0.00,,,0.00,0.000000,,2013-03-21 10:02:00,
2013-03-21 05:23:00,6.0,1.0,-100.00,WNW,285,1.0,3.0,80,0.00,,,0.00,0.000000,,2013-03-21 10:23:00,
2013-03-21 05:34:00,6.0,1.0,-100.00,WNW,285,1.0,3.0,80,0.00,,,0.00,0.000000,,2013-03-21 10:34:00,
2013-03-21 05:43:00,6.0,1.0,-100.00,WNW,285,1.0,3.0,80,0.00,,,0.00,0.000000,,2013-03-21 10:43:00,
2013-03-21 05:53:00,6.0,1.0,-100.00,WNW,285,1.0,3.0,80,0.00,,,0.00,0.000000,,2013-03-21 10:53:00,
2013-03-21 06:02:00,10.0,5.0,-100.00,WNW,284,2.0,5.0,80,0.00,,,0.00,0.000000,,2013-03-21 11:02:00,
2013-03-21 06:33:00,10.0,5.0,-100.00,WNW,284,2.0,5.0,80,0.00,,,0.00,0.000000,,2013-03-21 11:33:00,
2013-03-21 06:43:00,10.0,5.0,-100.00,WNW,284,2.0,5.0,80,0.00,,,0.00,0.000000,,2013-03-21 11:43:00,
2013-03-21 06:53:00,10.0,5.0,-100.00,WNW,284,2.0,5.0,80,0.00,,,0.00,0.000000,,2013-03-21 11:53:00,
2013-03-21 07:02:00,10.0,5.0,-100.00,West,278,2.0,4.0,80,0.00,,,0.00,0.000000,,2013-03-21 12:02:00,
2013-03-21 07:33:00,10.0,5.0,-100.00,West,278,2.0,4.0,80,0.00,,,0.00,0.000000,,2013-03-21 12:33:00,
2013-03-21 07:43:00,10.0,5.0,-100.00,West,278,2.0,4.0,80,0.00,,,0.00,0.000000,,2013-03-21 12:43:00,
2013-03-21 07:53:00,10.0,5.0,-100.00,West,278,2.0,4.0,80,0.00,,,0.00,0.000000,,2013-03-21 12:53:00,
2013-03-21 08:02:00,11.0,5.0,-100.00,WNW,295,3.0,6.0,77,0.00,,,0.00,22.000000,,2013-03-21 13:02:00,
2013-03-21 08:32:00,11.0,5.0,-100.00,WNW,295,3.0,6.0,77,0.00,,,0.00,22.000000,,2013-03-21 13:32:00,
2013-03-21 08:42:00,11.0,5.0,-100.00,WNW,295,3.0,6.0,77,0.00,,,0.00,22.000000,,2013-03-21 13:42:00,
2013-03-21 08:52:00,11.0,5.0,-100.00,WNW,295,3.0,6.0,77,0.00,,,0.00,22.000000,,2013-03-21 13:52:00,
2013-03-21 09:02:00,13.0,6.0,-100.00,WNW,303,4.0,8.0,74,0.00,,,0.00,93.000000,,2013-03-21 14:02:00,
2013-03-21 09:32:00,13.0,6.0,-100.00,WNW,303,4.0,8.0,74,0.00,,,0.00,93.000000,,2013-03-21 14:32:00,
2013-03-21 09:43:00,13.0,6.0,-100.00,WNW,303,4.0,8.0,74,0.00,,,0.00,93.000000,,2013-03-21 14:43:00,
2013-03-21 09:52:00,13.0,6.0,-100.00,WNW,303,4.0,8.0,74,0.00,,,0.00,93.000000,,2013-03-21 14:52:00,
2013-03-21 10:02:00,16.0,7.0,-100.00,NW,313,5.0,10.0,68,0.00,,,0.00,199.000000,,2013-03-21 15:02:00,
2013-03-21 10:33:00,16.0,7.0,-100.00,NW,313,5.0,10.0,68,0.00,,,0.00,199.000000,,2013-03-21 15:33:00,
2013-03-21 10:43:00,16.0,7.0,-100.00,NW,313,5.0,10.0,68,0.00,,,0.00,199.000000,,2013-03-21 15:43:00,
2013-03-21 10:53:00,16.0,7.0,-100.00,NW,313,5.0,10.0,68,0.00,,,0.00,199.000000,,2013-03-21 15:53:00,
2013-03-21 11:02:00,20.0,6.0,-100.00,WNW,290,5.0,10.0,55,0.00,,,0.00,440.000000,,2013-03-21 16:02:00,
2013-03-21 11:33:00,20.0,6.0,-100.00,WNW,290,5.0,10.0,55,0.00,,,0.00,440.000000,,2013-03-21 16:33:00,
2013-03-21 11:42:00,20.0,6.0,-100.00,WNW,290,5.0,10.0,55,0.00,,,0.00,440.000000,,2013-03-21 16:42:00,
2013-03-21 11:53:00,20.0,6.0,-100.00,WNW,290,5.0,10.0,55,0.00,,,0.00,440.000000,,2013-03-21 16:53:00,
2013-03-21 12:02:00,27.0,9.0,-100.00,NNW,333,3.0,9.0,45,0.01,,,0.01,628.000000,,2013-03-21 17:02:00,
2013-03-21 12:33:00,27.0,9.0,-100.00,NNW,333,3.0,9.0,45,0.01,,,0.01,628.000000,,2013-03-21 17:33:00,
2013-03-21 12:43:00,27.0,9.0,-100.00,NNW,333,3.0,9.0,45,0.01,,,0.01,628.000000,,2013-03-21 17:43:00,
2013-03-21 12:53:00,27.0,9.0,-100.00,NNW,333,3.0,9.0,45,0.01,,,0.01,628.000000,,2013-03-21 17:53:00,
2013-03-21 13:02:00,26.0,7.0,-100.00,West,274,5.0,10.0,44,0.00,,,0.01,840.000000,,2013-03-21 18:02:00,
2013-03-21 13:23:00,26.0,7.0,-100.00,West,274,5.0,10.0,44,0.00,,,0.01,840.000000,,2013-03-21 18:23:00,
2013-03-21 13:32:00,26.0,7.0,-100.00,West,274,5.0,10.0,44,0.00,,,0.01,840.000000,,2013-03-21 18:32:00,
2013-03-21 13:43:00,26.0,7.0,-100.00,West,274,5.0,10.0,44,0.00,,,0.01,840.000000,,2013-03-21 18:43:00,
2013-03-21 13:52:00,26.0,7.0,-100.00,West,274,5.0,10.0,44,0.00,,,0.01,840.000000,,2013-03-21 18:52:00,
2013-03-21 14:02:00,31.0,8.0,-100.00,West,267,3.0,8.0,37,0.00,,,0.01,894.000000,,2013-03-21 19:02:00,
2013-03-21 14:23:00,31.0,8.0,-100.00,West,267,3.0,8.0,37,0.00,,,0.01,894.000000,,2013-03-21 19:23:00,
2013-03-21 14:32:00,31.0,8.0,-100.00,West,267,3.0,8.0,37,0.00,,,0.01,894.000000,,2013-03-21 19:32:00,
2013-03-21 14:43:00,31.0,8.0,-100.00,West,267,3.0,8.0,37,0.00,,,0.01,894.000000,,2013-03-21 19:43:00,
2013-03-21 14:53:00,31.0,8.0,-100.00,West,267,3.0,8.0,37,0.00,,,0.01,894.000000,,2013-03-21 19:53:00,
2013-03-21 15:02:00,34.0,9.0,-100.00,WSW,239,3.0,9.0,34,0.00,,,-99.99,832.000000,,2013-03-21 20:02:00,
2013-03-21 15:33:00,34.0,9.0,-100.00,WSW,239,3.0,9.0,34,0.00,,,-99.99,832.000000,,2013-03-21 20:33:00,
2013-03-21 15:42:00,34.0,9.0,-100.00,WSW,239,3.0,9.0,34,0.00,,,-99.99,832.000000,,2013-03-21 20:42:00,
2013-03-21 15:53:00,34.0,9.0,-100.00,WSW,239,3.0,9.0,34,0.00,,,-99.99,832.000000,,2013-03-21 20:53:00,
2013-03-21 16:02:00,34.0,9.0,-100.00,WNW,298,4.0,10.0,34,0.00,,,0.01,704.000000,,2013-03-21 21:02:00,
2013-03-21 16:23:00,34.0,9.0,-100.00,WNW,298,4.0,10.0,34,0.00,,,0.01,704.000000,,2013-03-21 21:23:00,
2013-03-21 16:33:00,34.0,9.0,-100.00,WNW,298,4.0,10.0,34,0.00,,,0.01,704.000000,,2013-03-21 21:33:00,
2013-03-21 16:43:00,34.0,9.0,-100.00,WNW,298,4.0,10.0,34,0.00,,,0.01,704.000000,,2013-03-21 21:43:00,
2013-03-21 16:53:00,34.0,9.0,-100.00,WNW,298,4.0,10.0,34,0.00,,,0.01,704.000000,,2013-03-21 21:53:00,
2013-03-21 17:02:00,31.0,7.0,-100.00,NNW,340,5.0,12.0,36,0.00,,,0.01,480.000000,,2013-03-21 22:02:00,
2013-03-21 17:34:00,31.0,7.0,-100.00,NNW,340,5.0,12.0,36,0.00,,,0.01,480.000000,,2013-03-21 22:34:00,
2013-03-21 17:43:00,31.0,7.0,-100.00,NNW,340,5.0,12.0,36,0.00,,,0.01,480.000000,,2013-03-21 22:43:00,
2013-03-21 17:53:00,31.0,7.0,-100.00,NNW,340,5.0,12.0,36,0.00,,,0.01,480.000000,,2013-03-21 22:53:00,
2013-03-21 18:02:00,29.0,7.0,-100.00,NNW,335,6.0,12.0,38,0.00,,,0.01,321.000000,,2013-03-21 23:02:00,
2013-03-21 18:22:00,29.0,7.0,-100.00,NNW,335,6.0,12.0,38,0.00,,,0.01,321.000000,,2013-03-21 23:22:00,
2013-03-21 18:33:00,29.0,7.0,-100.00,NNW,335,6.0,12.0,38,0.00,,,0.01,321.000000,,2013-03-21 23:33:00,
2013-03-21 18:43:00,29.0,7.0,-100.00,NNW,335,6.0,12.0,38,0.00,,,0.01,321.000000,,2013-03-21 23:43:00,
2013-03-21 18:53:00,29.0,7.0,-100.00,NNW,335,6.0,12.0,38,0.00,,,0.01,321.000000,,2013-03-21 23:53:00,
2013-03-21 19:02:00,24.0,5.0,-100.00,NNW,334,5.0,10.0,44,0.00,,,0.01,78.000000,,2013-03-22 00:02:00,
2013-03-21 19:22:00,24.0,5.0,-100.00,NNW,334,5.0,10.0,44,0.00,,,0.01,78.000000,,2013-03-22 00:22:00,
2013-03-21 19:32:00,24.0,5.0,-100.00,NNW,334,5.0,10.0,44,0.00,,,0.01,78.000000,,2013-03-22 00:32:00,
2013-03-21 19:42:00,24.0,5.0,-100.00,NNW,334,5.0,10.0,44,0.00,,,0.01,78.000000,,2013-03-22 00:42:00,
2013-03-21 19:52:00,24.0,5.0,-100.00,NNW,334,5.0,10.0,44,0.00,,,0.01,78.000000,,2013-03-22 00:52:00,
2013-03-21 20:02:00,18.0,6.0,-100.00,NNW,340,0.0,8.0,59,0.00,,,0.01,4.000000,,2013-03-22 01:02:00,
2013-03-21 20:33:00,18.0,6.0,-100.00,NNW,340,0.0,8.0,59,0.00,,,0.01,4.000000,,2013-03-22 01:33:00,
2013-03-21 20:43:00,18.0,6.0,-100.00,NNW,340,0.0,8.0,59,0.00,,,0.01,4.000000,,2013-03-22 01:43:00,
2013-03-21 20:53:00,18.0,6.0,-100.00,NNW,340,0.0,8.0,59,0.00,,,0.01,4.000000,,2013-03-22 01:53:00,
2013-03-21 21:02:00,11.0,5.0,-100.00,NNE,31,0.0,2.0,76,0.00,,,0.01,0.000000,,2013-03-22 02:02:00,
2013-03-21 21:32:00,11.0,5.0,-100.00,NNE,31,0.0,2.0,76,0.00,,,0.01,0.000000,,2013-03-22 02:32:00,
2013-03-21 21:43:00,11.0,5.0,-100.00,NNE,31,0.0,2.0,76,0.00,,,0.01,0.000000,,2013-03-22 02:43:00,
2013-03-21 21:53:00,11.0,5.0,-100.00,NNE,31,0.0,2.0,76,0.00,,,0.01,0.000000,,2013-03-22 02:53:00,
2013-03-21 22:02:00,8.0,3.0,-100.00,North,1,0.0,2.0,80,0.00,,,0.01,0.000000,,2013-03-22 03:02:00,
2013-03-21 22:33:00,8.0,3.0,-100.00,North,1,0.0,2.0,80,0.00,,,0.01,0.000000,,2013-03-22 03:33:00,
2013-03-21 22:43:00,8.0,3.0,-100.00,North,1,0.0,2.0,80,0.00,,,0.01,0.000000,,2013-03-22 03:43:00,
2013-03-21 22:53:00,8.0,3.0,-100.00,North,1,0.0,2.0,80,0.00,,,0.01,0.000000,,2013-03-22 03:53:00,
2013-03-21 23:02:00,5.0,1.0,-100.00,NW,315,0.0,0.0,82,0.00,,,0.01,0.000000,,2013-03-22 04:02:00,
2013-03-21 23:23:00,5.0,1.0,-100.00,NW,315,0.0,0.0,82,0.00,,,0.01,0.000000,,2013-03-22 04:23:00,
2013-03-21 23:32:00,5.0,1.0,-100.00,NW,315,0.0,0.0,82,0.00,,,0.01,0.000000,,2013-03-22 04:32:00,
2013-03-21 23:43:00,5.0,1.0,-100.00,NW,315,0.0,0.0,82,0.00,,,0.01,0.000000,,2013-03-22 04:43:00,
2013-03-21 23:52:00,5.0,1.0,-100.00,NW,315,0.0,0.0,82,0.00,,,0.01,0.000000,,2013-03-22 04:52:00,